STARLINK-32273

Last updated on Thu Nov 21 2024 00:02:06 GMT+0000 (Coordinated Universal Time)

1 61956U 24209T 24325.66668981 -.01094456 35648-3 -34161-2 0 9997 2 61956 53.1656 191.8442 0000508 72.8803 345.2793 15.90860563 2227
UTC large
Height (km)
Speed (km/s)
/
Latitude / Longitude
Inclination (degrees)
Orbital Period (minutes)
Azimuth
Elevation
Range (km)
Doppler Factor

Next 0 passes for location: London (51.5072 / 0.1276)

Sorry there are no passes over London.